Overview Statistics Trail Chart Weather Telemetry Raw packets
 

This is the latest recevied weather packets stored in our database for station/object W0AKY-13. If no packets are shown the sender has not sent any weather packets the latest 10 day(s).

<< 72 73 74 75 76 77 78 >>
Time Temp. Humidity Pressure Rain* Wind** Luminosity Snow
1788012686 22.78° C 73% 1015.7 hPa 0 mm - 90 W/m² -
1788012381 22.22° C 74% 1015.7 hPa 0 mm - 68 W/m² -
1788012076 22.22° C 74% 1015.6 hPa 0 mm - 56 W/m² -
1788011775 22.22° C 75% 1015.7 hPa 0 mm - 51 W/m² -
1788011469 21.67° C 76% 1015.6 hPa 0 mm - 51 W/m² -
1788011170 21.67° C 76% 1015.8 hPa 0 mm - 52 W/m² -
1788010864 21.67° C 77% 1015.6 hPa 0 mm - 48 W/m² -
1788010563 21.11° C 78% 1015.8 hPa 0 mm - 44 W/m² -
1788010258 21.11° C 78% 1015.7 hPa 0 mm - 42 W/m² -
1788009957 21.11° C 79% 1015.8 hPa 0 mm - 38 W/m² -
1788009656 20.56° C 78% 1016.1 hPa 0 mm - 35 W/m² -
1788009355 20.56° C 79% 1016.1 hPa 0 mm - 33 W/m² -
1788009050 20.56° C 79% 1015.9 hPa 0 mm - 31 W/m² -
1788008746 20.56° C 80% 1015.9 hPa 0 mm - 29 W/m² -
1788008445 20° C 80% 1016.2 hPa 0 mm - 27 W/m² -
1788008143 20° C 82% 1016.1 hPa 0 mm - 25 W/m² -
1788007841 20° C 81% 1016.1 hPa 0 mm - 22 W/m² -
1788007540 20° C 81% 1016.1 hPa 0 mm - 19 W/m² -
1788007240 20° C 82% 1016.2 hPa 0 mm - 16 W/m² -
1788006939 20° C 81% 1016.2 hPa 0 mm - 14 W/m² -
1788006639 20° C 82% 1016.1 hPa 0 mm - 13 W/m² -
1788006334 20° C 81% 1016.2 hPa 0 mm - 12 W/m² -
1788006032 19.44° C 81% 1016.3 hPa 0 mm - 10 W/m² -
1788005727 19.44° C 83% 1015.9 hPa 0 mm - 8 W/m² -
1788005422 19.44° C 83% 1016 hPa 0 mm - 6 W/m² -

* Rain latest hour (hover to see other rain measurements)
** Current wind speed in m/s (hover to see current wind gust speed)